When you browse on this site, cookies collect data to enhance your experience and personalize the content and advertising you see.
Visit our Privacy Policy to learn more. By continuing to use the site, you agree to this use of cookies and data.
  • In Spain
  • List of Countries
  • For 7 days
  • Water Temperature
  • Satellite Maps
  • Weather Map
  • Weather Widgets
  • user-avatar
    Login

    Hourly Weather Mansa Konko

    Today, 21 November, Wednesday

    Time Temperature Precipitation Wind Pressure Humidity
    00:00 +28°C° 0 mm 1 mps 759 mmHg 42%
    01:00 +27°C° 0 mm 1 mps 758 mmHg 43%
    02:00 +27°C° 0 mm 1 mps 758 mmHg 43%
    03:00 +27°C° 0 mm 2 mps 758 mmHg 43%
    04:00 +26°C° 0 mm 2 mps 758 mmHg 42%
    05:00 +26°C° 0 mm 2 mps 758 mmHg 37%
    06:00 +27°C° 0 mm 3 mps 759 mmHg 36%
    07:00 +29°C° 0 mm 3 mps 759 mmHg 34%
    08:00 +30°C° 0 mm 4 mps 759 mmHg 32%
    09:00 +33°C° 0 mm 4 mps 759 mmHg 28%
    10:00 +36°C° 0 mm 4 mps 759 mmHg 24%
    11:00 +38°C° 0 mm 4 mps 759 mmHg 20%
    12:00 +40°C° 0 mm 4 mps 758 mmHg 19%
    13:00 +40°C° 0 mm 3 mps 758 mmHg 19%
    14:00 +41°C° 0 mm 2 mps 757 mmHg 19%
    15:00 +40°C° 0 mm 2 mps 757 mmHg 20%
    16:00 +39°C° 0 mm 1 mps 756 mmHg 22%
    17:00 +37°C° 0 mm 1 mps 756 mmHg 24%
    18:00 +35°C° 0 mm 1 mps 757 mmHg 26%
    19:00 +34°C° 0 mm 1 mps 757 mmHg 28%
    20:00 +32°C° 0 mm 2 mps 758 mmHg 30%
    21:00 +31°C° 0 mm 2 mps 758 mmHg 32%
    22:00 +30°C° 0 mm 2 mps 758 mmHg 34%
    23:00 +29°C° 0 mm 2 mps 758 mmHg 36%

    Tomorrow, 22 November, Thursday

    Time Temperature Precipitation Wind Pressure Humidity
    00:00 +29°C° 0 mm 2 mps 758 mmHg 38%
    01:00 +28°C° 0 mm 3 mps 758 mmHg 39%
    02:00 +27°C° 0 mm 3 mps 758 mmHg 40%
    03:00 +27°C° 0 mm 3 mps 758 mmHg 40%
    04:00 +27°C° 0 mm 3 mps 758 mmHg 41%
    05:00 +26°C° 0 mm 3 mps 758 mmHg 41%
    06:00 +28°C° 0 mm 4 mps 758 mmHg 39%
    07:00 +29°C° 0 mm 4 mps 759 mmHg 36%
    08:00 +30°C° 0 mm 5 mps 759 mmHg 33%
    09:00 +34°C° 0 mm 5 mps 759 mmHg 29%
    10:00 +36°C° 0 mm 5 mps 759 mmHg 25%
    11:00 +40°C° 0 mm 5 mps 759 mmHg 21%
    12:00 +40°C° 0 mm 4 mps 758 mmHg 19%
    13:00 +41°C° 0 mm 4 mps 757 mmHg 18%
    14:00 +42°C° 0 mm 3 mps 756 mmHg 17%
    15:00 +40°C° 0 mm 3 mps 756 mmHg 19%
    16:00 +39°C° 0 mm 2 mps 755 mmHg 20%
    17:00 +38°C° 0 mm 2 mps 755 mmHg 22%
    18:00 +37°C° 0 mm 2 mps 756 mmHg 24%
    19:00 +35°C° 0 mm 3 mps 757 mmHg 26%
    20:00 +33°C° 0 mm 3 mps 757 mmHg 27%
    21:00 +32°C° 0 mm 4 mps 757 mmHg 31%
    22:00 +32°C° 0 mm 5 mps 758 mmHg 35%
    23:00 +30°C° 0 mm 5 mps 758 mmHg 38%

    Day after tomorrow, 23 November, Friday

    Time Temperature Precipitation Wind Pressure Humidity
    00:00 +29°C° 0 mm 5 mps 758 mmHg 39%
    01:00 +28°C° 0 mm 5 mps 758 mmHg 41%
    02:00 +28°C° 0 mm 5 mps 757 mmHg 42%
    03:00 +27°C° 0 mm 5 mps 757 mmHg 43%
    04:00 +27°C° 0 mm 4 mps 757 mmHg 43%
    05:00 +27°C° 0 mm 4 mps 757 mmHg 43%
    06:00 +27°C° 0 mm 5 mps 758 mmHg 41%
    07:00 +28°C° 0 mm 5 mps 759 mmHg 40%
    08:00 +29°C° 0 mm 6 mps 759 mmHg 38%
    09:00 +32°C° 0 mm 6 mps 759 mmHg 33%
    10:00 +34°C° 0 mm 6 mps 759 mmHg 28%
    11:00 +38°C° 0 mm 7 mps 759 mmHg 24%
    12:00 +39°C° 0 mm 6 mps 758 mmHg 22%
    13:00 +40°C° 0 mm 6 mps 757 mmHg 20%
    14:00 +41°C° 0 mm 6 mps 756 mmHg 18%
    15:00 +40°C° 0 mm 5 mps 756 mmHg 19%
    16:00 +38°C° 0 mm 4 mps 756 mmHg 20%
    17:00 +37°C° 0 mm 4 mps 756 mmHg 21%
    18:00 +36°C° 0 mm 4 mps 756 mmHg 22%
    19:00 +34°C° 0 mm 4 mps 757 mmHg 24%
    20:00 +33°C° 0 mm 3 mps 758 mmHg 25%
    21:00 +32°C° 0 mm 4 mps 758 mmHg 27%
    22:00 +30°C° 0 mm 4 mps 758 mmHg 29%
    23:00 +29°C° 0 mm 4 mps 758 mmHg 31%

    24 November, Saturday

    Time Temperature Precipitation Wind Pressure Humidity
    00:00 +29°C° 0 mm 4 mps 757 mmHg 32%
    01:00 +28°C° 0 mm 4 mps 757 mmHg 33%
    02:00 +27°C° 0 mm 4 mps 757 mmHg 34%
    03:00 +27°C° 0 mm 4 mps 757 mmHg 34%
    04:00 +26°C° 0 mm 4 mps 757 mmHg 35%
    05:00 +26°C° 0 mm 3 mps 757 mmHg 35%
    06:00 +27°C° 0 mm 4 mps 758 mmHg 34%
    07:00 +28°C° 0 mm 5 mps 758 mmHg 32%
    08:00 +29°C° 0 mm 5 mps 759 mmHg 31%
    09:00 +32°C° 0 mm 5 mps 759 mmHg 27%
    10:00 +35°C° 0 mm 5 mps 758 mmHg 24%
    11:00 +37°C° 0 mm 5 mps 758 mmHg 21%
    12:00 +39°C° 0 mm 5 mps 757 mmHg 19%
    13:00 +41°C° 0 mm 4 mps 756 mmHg 17%
    14:00 +42°C° 0 mm 4 mps 755 mmHg 16%
    15:00 +41°C° 0 mm 4 mps 755 mmHg 17%
    16:00 +39°C° 0 mm 3 mps 755 mmHg 18%
    17:00 +38°C° 0 mm 2 mps 755 mmHg 19%
    18:00 +36°C° 0 mm 2 mps 756 mmHg 21%
    19:00 +35°C° 0 mm 3 mps 757 mmHg 23%
    20:00 +33°C° 0 mm 3 mps 757 mmHg 25%
    21:00 +33°C° 0 mm 3 mps 757 mmHg 26%
    22:00 +31°C° 0 mm 3 mps 757 mmHg 27%
    23:00 +31°C° 0 mm 3 mps 757 mmHg 28%

    25 November, Sunday

    Time Temperature Precipitation Wind Pressure Humidity
    00:00 +30°C° 0 mm 3 mps 757 mmHg 29%
    01:00 +30°C° 0 mm 3 mps 757 mmHg 31%
    02:00 +29°C° 0 mm 3 mps 756 mmHg 33%
    03:00 +28°C° 0 mm 3 mps 757 mmHg 35%
    04:00 +27°C° 0 mm 3 mps 757 mmHg 37%
    05:00 +27°C° 0 mm 2 mps 757 mmHg 39%
    06:00 +28°C° 0 mm 3 mps 757 mmHg 37%
    07:00 +29°C° 0 mm 3 mps 758 mmHg 36%
    08:00 +30°C° 0 mm 4 mps 758 mmHg 34%
    09:00 +33°C° 0 mm 4 mps 758 mmHg 30%
    10:00 +36°C° 0 mm 4 mps 758 mmHg 26%
    11:00 +38°C° 0 mm 4 mps 758 mmHg 21%
    12:00 +40°C° 0 mm 4 mps 757 mmHg 19%
    13:00 +41°C° 0 mm 4 mps 756 mmHg 17%
    14:00 +43°C° 0 mm 4 mps 755 mmHg 14%
    15:00 +40°C° 0 mm 3 mps 755 mmHg 15%
    16:00 +39°C° 0 mm 3 mps 755 mmHg 16%
    17:00 +38°C° 0 mm 2 mps 755 mmHg 17%
    18:00 +37°C° 0 mm 2 mps 756 mmHg 19%
    19:00 +35°C° 0 mm 3 mps 756 mmHg 21%
    20:00 +33°C° 0 mm 3 mps 757 mmHg 23%
    21:00 +33°C° 0 mm 3 mps 757 mmHg 24%
    22:00 +31°C° 0 mm 3 mps 757 mmHg 26%
    23:00 +32°C° 0 mm 4 mps 757 mmHg 28%

    26 November, Monday

    Time Temperature Precipitation Wind Pressure Humidity
    00:00 +30°C° 0 mm 3 mps 756 mmHg 30%
    01:00 +29°C° 0 mm 3 mps 756 mmHg 31%
    02:00 +29°C° 0 mm 3 mps 756 mmHg 32%
    03:00 +28°C° 0 mm 3 mps 756 mmHg 33%
    04:00 +28°C° 0 mm 2 mps 756 mmHg 35%
    05:00 +27°C° 0 mm 2 mps 756 mmHg 36%
    06:00 +28°C° 0 mm 3 mps 757 mmHg 34%
    07:00 +29°C° 0 mm 3 mps 757 mmHg 33%
    08:00 +30°C° 0 mm 4 mps 757 mmHg 31%
    09:00 +33°C° 0 mm 4 mps 757 mmHg 27%
    10:00 +34°C° 0 mm 4 mps 757 mmHg 23%
    11:00 +36°C° 0 mm 4 mps 757 mmHg 20%
    12:00 +37°C° 0 mm 4 mps 756 mmHg 17%
    13:00 +40°C° 0 mm 4 mps 755 mmHg 14%
    14:00 +42°C° 0 mm 4 mps 754 mmHg 11%
    15:00 +40°C° 0 mm 3 mps 754 mmHg 11%
    16:00 +38°C° 0 mm 3 mps 754 mmHg 12%
    17:00 +37°C° 0 mm 2 mps 754 mmHg 13%
    18:00 +36°C° 0 mm 2 mps 755 mmHg 13%
    19:00 +34°C° 0 mm 2 mps 755 mmHg 14%
    20:00 +31°C° 0 mm 3 mps 756 mmHg 14%
    21:00 +31°C° 0 mm 3 mps 756 mmHg 15%
    22:00 +30°C° 0 mm 3 mps 756 mmHg 16%
    23:00 +29°C° 0 mm 3 mps 756 mmHg 17%
    Show more